When you browse on this site, cookies collect data to enhance your experience and personalize the content and advertising you see.
Visit our Privacy Policy to learn more. By continuing to use the site, you agree to this use of cookies and data.
  • In Hungary
  • List of Countries
  • For 7 days
  • Water Temperature
  • Satellite Maps
  • Weather Map
  • News
  • Weather Widgets
  • user-avatar
    Login

    Hourly Weather Yeghegnadzor

    Today, 26 April, Friday

    Time Temperature Precipitation Wind Pressure Humidity
    00:00 +4°C° 0 mm 2 mps 656 mmHg 66%
    01:00 +3°C° 0 mm 2 mps 656 mmHg 66%
    02:00 +3°C° 0 mm 2 mps 656 mmHg 66%
    03:00 +3°C° 0 mm 2 mps 655 mmHg 67%
    04:00 +3°C° 0 mm 2 mps 656 mmHg 66%
    05:00 +3°C° 0 mm 2 mps 656 mmHg 65%
    06:00 +3°C° 0 mm 2 mps 656 mmHg 63%
    07:00 +5°C° 0 mm 2 mps 656 mmHg 60%
    08:00 +8°C° 0 mm 1 mps 656 mmHg 56%
    09:00 +10°C° 0 mm 1 mps 656 mmHg 52%
    10:00 +11°C° 0 mm 1 mps 656 mmHg 52%
    11:00 +12°C° 0 mm 1 mps 656 mmHg 52%
    12:00 +12°C° 0 mm 1 mps 656 mmHg 52%
    13:00 +13°C° 0 mm 1 mps 656 mmHg 51%
    14:00 +13°C° 0 mm 1 mps 656 mmHg 50%
    15:00 +13°C° 0 mm 1 mps 655 mmHg 49%
    16:00 +13°C° 0 mm 1 mps 655 mmHg 48%
    17:00 +12°C° 0 mm 1 mps 655 mmHg 48%
    18:00 +12°C° 0 mm 1 mps 655 mmHg 47%
    19:00 +11°C° 0 mm 1 mps 655 mmHg 50%
    20:00 +8°C° 0 mm 2 mps 655 mmHg 54%
    21:00 +7°C° 0 mm 2 mps 655 mmHg 58%
    22:00 +7°C° 0 mm 2 mps 655 mmHg 59%
    23:00 +6°C° 0 mm 2 mps 655 mmHg 60%

    Tomorrow, 27 April, Saturday

    Time Temperature Precipitation Wind Pressure Humidity
    00:00 +6°C° 0 mm 2 mps 655 mmHg 61%
    01:00 +5°C° 0 mm 2 mps 655 mmHg 61%
    02:00 +5°C° 0 mm 2 mps 655 mmHg 61%
    03:00 +5°C° 0 mm 2 mps 654 mmHg 61%
    04:00 +5°C° 0 mm 2 mps 654 mmHg 60%
    05:00 +5°C° 0 mm 2 mps 654 mmHg 60%
    06:00 +5°C° 0 mm 2 mps 655 mmHg 59%
    07:00 +8°C° 0 mm 1 mps 655 mmHg 57%
    08:00 +10°C° 0 mm 1 mps 655 mmHg 55%
    09:00 +11°C° 0 mm 1 mps 655 mmHg 53%
    10:00 +12°C° 0 mm 1 mps 655 mmHg 52%
    11:00 +13°C° 0 mm 2 mps 655 mmHg 52%
    12:00 +14°C° 0 mm 2 mps 655 mmHg 51%
    13:00 +14°C° 0 mm 2 mps 654 mmHg 49%
    14:00 +14°C° 0 mm 2 mps 654 mmHg 47%
    15:00 +15°C° 0 mm 2 mps 654 mmHg 45%
    16:00 +14°C° 0 mm 2 mps 653 mmHg 44%
    17:00 +14°C° 0 mm 1 mps 653 mmHg 42%
    18:00 +13°C° 0 mm 1 mps 653 mmHg 41%
    19:00 +12°C° 0 mm 1 mps 653 mmHg 42%
    20:00 +10°C° 0 mm 1 mps 653 mmHg 44%
    21:00 +9°C° 0 mm 1 mps 653 mmHg 45%
    22:00 +8°C° 0 mm 2 mps 653 mmHg 45%
    23:00 +7°C° 0 mm 2 mps 653 mmHg 46%

    Day after tomorrow, 28 April, Sunday

    Time Temperature Precipitation Wind Pressure Humidity
    00:00 +7°C° 0 mm 2 mps 653 mmHg 46%
    01:00 +7°C° 0 mm 2 mps 652 mmHg 48%
    02:00 +7°C° 0 mm 1 mps 652 mmHg 49%
    03:00 +7°C° 0 mm 1 mps 652 mmHg 50%
    04:00 +7°C° 0 mm 1 mps 652 mmHg 52%
    05:00 +8°C° 0 mm 1 mps 652 mmHg 54%
    06:00 +8°C° 0 mm 1 mps 652 mmHg 56%
    07:00 +8°C° 0 mm 2 mps 652 mmHg 52%
    08:00 +10°C° 0 mm 2 mps 652 mmHg 49%
    09:00 +13°C° 0 mm 2 mps 652 mmHg 45%
    10:00 +13°C° 0 mm 2 mps 652 mmHg 45%
    11:00 +13°C° 0 mm 3 mps 652 mmHg 45%
    12:00 +14°C° 0 mm 3 mps 652 mmHg 46%
    13:00 +14°C° 0 mm 3 mps 652 mmHg 47%
    14:00 +14°C° 0 mm 3 mps 651 mmHg 48%
    15:00 +14°C° 0 mm 3 mps 651 mmHg 50%
    16:00 +13°C° 0 mm 3 mps 651 mmHg 51%
    17:00 +14°C° 0 mm 2 mps 651 mmHg 53%
    18:00 +14°C° 0 mm 2 mps 651 mmHg 54%
    19:00 +12°C° 0 mm 1 mps 651 mmHg 58%
    20:00 +11°C° 0 mm 1 mps 651 mmHg 61%
    21:00 +10°C° 0 mm 1 mps 651 mmHg 65%
    22:00 +9°C° 0 mm 1 mps 651 mmHg 66%
    23:00 +9°C° 0 mm 1 mps 651 mmHg 67%

    29 April, Monday

    Time Temperature Precipitation Wind Pressure Humidity
    00:00 +9°C° 0 mm 1 mps 651 mmHg 69%
    01:00 +8°C° 0 mm 1 mps 651 mmHg 69%
    02:00 +8°C° 0 mm 1 mps 651 mmHg 69%
    03:00 +8°C° 0 mm 1 mps 651 mmHg 70%
    04:00 +8°C° 0 mm 1 mps 651 mmHg 69%
    05:00 +9°C° 0 mm 1 mps 651 mmHg 68%
    06:00 +9°C° 0 mm 1 mps 651 mmHg 67%
    07:00 +10°C° 0 mm 2 mps 652 mmHg 65%
    08:00 +12°C° 0 mm 2 mps 652 mmHg 62%
    09:00 +14°C° 0 mm 2 mps 652 mmHg 60%
    10:00 +15°C° 0 mm 2 mps 652 mmHg 58%
    11:00 +16°C° 0 mm 3 mps 652 mmHg 56%
    12:00 +16°C° 0 mm 3 mps 652 mmHg 54%
    13:00 +17°C° 0.1 mm 3 mps 652 mmHg 52%
    14:00 +17°C° 0.1 mm 3 mps 652 mmHg 50%
    15:00 +18°C° 0.1 mm 3 mps 651 mmHg 48%
    16:00 +17°C° 0.2 mm 3 mps 651 mmHg 49%
    17:00 +16°C° 0.2 mm 2 mps 651 mmHg 50%
    18:00 +16°C° 0.2 mm 1 mps 651 mmHg 51%
    19:00 +14°C° 0.1 mm 1 mps 651 mmHg 55%
    20:00 +13°C° 0.1 mm 1 mps 652 mmHg 58%
    21:00 +12°C° 0.1 mm 1 mps 652 mmHg 61%
    22:00 +12°C° 0 mm 1 mps 652 mmHg 63%
    23:00 +11°C° 0 mm 1 mps 651 mmHg 64%

    30 April, Tuesday

    Time Temperature Precipitation Wind Pressure Humidity
    00:00 +10°C° 0 mm 2 mps 651 mmHg 66%
    01:00 +9°C° 0 mm 2 mps 651 mmHg 67%
    02:00 +9°C° 0 mm 2 mps 651 mmHg 69%
    03:00 +9°C° 0 mm 2 mps 651 mmHg 70%
    04:00 +9°C° 0 mm 2 mps 652 mmHg 71%
    05:00 +9°C° 0 mm 2 mps 652 mmHg 71%
    06:00 +9°C° 0 mm 2 mps 652 mmHg 71%
    07:00 +12°C° 0 mm 2 mps 652 mmHg 67%
    08:00 +13°C° 0 mm 2 mps 653 mmHg 63%
    09:00 +15°C° 0 mm 2 mps 653 mmHg 59%
    10:00 +16°C° 0 mm 2 mps 653 mmHg 56%
    11:00 +17°C° 0 mm 3 mps 653 mmHg 52%
    12:00 +18°C° 0 mm 3 mps 653 mmHg 48%
    13:00 +18°C° 0 mm 3 mps 653 mmHg 46%
    14:00 +19°C° 0 mm 3 mps 652 mmHg 44%
    15:00 +19°C° 0 mm 3 mps 652 mmHg 42%
    16:00 +18°C° 0.1 mm 2 mps 652 mmHg 43%
    17:00 +18°C° 0.1 mm 2 mps 652 mmHg 45%
    18:00 +18°C° 0.1 mm 1 mps 652 mmHg 47%
    19:00 +16°C° 0 mm 1 mps 652 mmHg 50%
    20:00 +14°C° 0 mm 1 mps 652 mmHg 53%
    21:00 +13°C° 0 mm 1 mps 652 mmHg 56%
    22:00 +13°C° 0 mm 1 mps 652 mmHg 57%
    23:00 +12°C° 0 mm 2 mps 652 mmHg 58%

    1 May, Wednesday

    Time Temperature Precipitation Wind Pressure Humidity
    00:00 +12°C° 0 mm 2 mps 652 mmHg 59%
    01:00 +12°C° 0.1 mm 2 mps 652 mmHg 60%
    02:00 +12°C° 0.1 mm 2 mps 652 mmHg 61%
    03:00 +10°C° 0.1 mm 2 mps 652 mmHg 62%
    04:00 +10°C° 0 mm 2 mps 652 mmHg 62%
    05:00 +12°C° 0 mm 2 mps 652 mmHg 63%
    06:00 +12°C° 0 mm 2 mps 652 mmHg 63%
    07:00 +13°C° 0 mm 2 mps 653 mmHg 57%
    08:00 +15°C° 0 mm 2 mps 653 mmHg 51%
    09:00 +17°C° 0 mm 3 mps 653 mmHg 45%
    10:00 +18°C° 0 mm 3 mps 653 mmHg 43%
    11:00 +19°C° 0 mm 3 mps 653 mmHg 40%
    12:00 +20°C° 0 mm 3 mps 652 mmHg 37%
    13:00 +20°C° 0 mm 3 mps 652 mmHg 36%
    14:00 +21°C° 0 mm 3 mps 652 mmHg 35%
    15:00 +21°C° 0 mm 3 mps 652 mmHg 34%
    16:00 +20°C° 0.1 mm 3 mps 652 mmHg 37%
    17:00 +19°C° 0.1 mm 2 mps 651 mmHg 41%
    18:00 +20°C° 0.1 mm 1 mps 651 mmHg 44%
    19:00 +18°C° 0 mm 1 mps 651 mmHg 47%
    20:00 +16°C° 0 mm 2 mps 651 mmHg 49%
    21:00 +14°C° 0 mm 2 mps 651 mmHg 52%
    22:00 +14°C° 0 mm 2 mps 651 mmHg 52%
    23:00 +14°C° 0 mm 2 mps 651 mmHg 52%
    Show more